Location: Newark
(0.5300°S, 127.4800°E)
Time: 01:42:16
(UTC+00:00)

A-11 Canister half - Pass Details

Date: 16 September 2019
Orbit: 1514 x 1686 km, 47.2° (Epoch: 18 October)

Event Time Altitude Azimuth Distance (km) Brightness Sun altitude
Rises 21:57:51 0° 202° (SSW) 4,866 11.4 8.2°
Reaches altitude 10° 22:01:32 10° 192° (SSW) 3,853 11.0 9.1°
Maximum altitude 22:09:57 32° 132° (SE) 2,451 10.9 11.2°
Drops below altitude 10° 22:18:05 10° 72° (ENE) 3,728 13.0 13.3°
Sets 22:21:31 0° 63° (ENE) 4,689 12.8 14.1°
